Regional Weather Roundup
Issued by NWS Little Rock, AR

Home | Current Version | Previous Version | Text Only | Print | Product List | Glossary Off
Versions: 1 2 3 4 5 6 7 8 9 10 11 12 13 14 15 16 17 18 19 20 21 22 23 24 25 26 27 28 29 30 31 32 33 34 35 36 37 38 39 40 41 42 43 44 45 46 47 48 49 50

000
ASUS44 KLZK 301212
RWRLZK

WEATHER ROUNDUP FOR ARKANSAS
NATIONAL WEATHER SERVICE LITTLE ROCK AR
700 AM CDT SUN APR 30 2017

NOTE: "FAIR" INDICATES FEW OR NO CLOUDS BELOW 12,000 FEET WITH NO
SIGNIFICANT WEATHER AND/OR OBSTRUCTIONS TO VISIBILITY.

ARZ001-003-010-029-301300-
NORTHWEST ARKANSAS

CITY           SKY/WX    TMP DP  RH WIND       PRES   REMARKS
FAYETTEVILLE   CLOUDY    56  56 100 S5        29.59F
6HR MIN TEMP:  56; 6HR MAX TEMP:  65; 6HR PCP:  0.24;

FORT SMITH     CLOUDY    56  53  90 SW6       29.63R
6HR MIN TEMP:  56; 6HR MAX TEMP:  69; 6HR PCP:  0.58;

HARRISON       CLOUDY    63  62  97 SE7       29.62S
6HR MIN TEMP:  62; 6HR MAX TEMP:  63; 6HR PCP:  0.46;

BENTONVILLE    CLOUDY    55  54  94 S8        29.37F
6HR MIN TEMP:  55; 6HR MAX TEMP:  64; 6HR PCP:  0.57;

ROGERS         LGT RAIN  57  56  96 SE8       29.58F
6HR MIN TEMP:  57; 6HR MAX TEMP:  64;

SILOAM SPGS    CLOUDY    55  50  82 SE8       29.54F
6HR MIN TEMP:  54; 6HR MAX TEMP:  64; 6HR PCP:  0.18;

HIGHFILL       CLOUDY    56  55  97 SE6       29.57S
6HR MIN TEMP:  56; 6HR MAX TEMP:  65; 6HR PCP:  0.59;

SPRINGDALE     CLOUDY    57  57 100 SE3       29.61S
$$

ARZ004-005-016-301300-
NORTH CENTRAL ARKANSAS

CITY           SKY/WX    TMP DP  RH WIND       PRES   REMARKS
BATESVILLE     CLOUDY    66  66 100 E9        29.69R
6HR MIN TEMP:  64; 6HR MAX TEMP:  66; 6HR PCP:  1.27;

FLIPPIN        CLOUDY    64  61  88 E9        29.61R
                                      6HR PCP:  2.15;

MTN HOME       LGT RAIN  63  62  97 SE12G21   29.63F
$$

ARZ040-041-301300-
WEST CENTRAL ARKANSAS

CITY           SKY/WX    TMP DP  RH WIND       PRES   REMARKS
MENA           NOT AVBL
$$

ARZ009-017-025-026-028-301300-
NORTHEAST ARKANSAS

CITY           SKY/WX    TMP DP  RH WIND       PRES   REMARKS
JONESBORO      HVY RAIN  65  64  97 E10       29.76R FOG
6HR MIN TEMP:  63; 6HR MAX TEMP:  74;

NEWPORT        RAIN      68  67  96 MISG      29.71R FOG
6HR MIN TEMP:  64; 6HR MAX TEMP:  68;

WALNUT RIDGE   CLOUDY    64  63  94 E15G21    29.70F
6HR MIN TEMP:  64; 6HR MAX TEMP:  66; 6HR PCP:  2.73;

BLYTHEVILLE    TSTM      66  66 100 E18G26    29.77R
6HR MIN TEMP:  63; 6HR MAX TEMP:  75;

$$

ARZ022-023-033-042-044-301300-
CENTRAL ARKANSAS

CITY           SKY/WX    TMP DP  RH WIND       PRES   REMARKS
LITTLE ROCK    CLOUDY    67  67 100 S9        29.67S
6HR MIN TEMP:  64; 6HR MAX TEMP:  71; 6HR PCP:  2.36;

N LITTLE ROCK    N/A     67  65  94 SW9       29.67R
6HR MIN TEMP:  63; 6HR MAX TEMP:  69;

JACKSONVILLE   LGT RAIN  68  68 100 S7        29.66F
                                      6HR PCP:  2.25;

CONWAY           N/A     70  68  94 SW6G14    29.62S
SEARCY         LGT RAIN  71  69  93 S17G35    29.70R
6HR MIN TEMP:  65; 6HR MAX TEMP:  71; 6HR PCP:  3.10;

CLINTON        DRIZZLE   66  64  94 E3        29.64R
$$

ARZ036-301300-
EAST ARKANSAS

CITY           SKY/WX    TMP DP  RH WIND       PRES   REMARKS
WEST MEMPHIS   RAIN      72  71  97 S13       29.75S FOG
6HR MIN TEMP:  66; 6HR MAX TEMP:  75; 6HR PCP:  0.11;

$$

ARZ050-053-066-070-073-301300-
SOUTHWEST ARKANSAS

CITY           SKY/WX    TMP DP  RH WIND       PRES   REMARKS
ARKADELPHIA    PTSUNNY   59  57  93 SW12      29.75R
6HR MIN TEMP:  58; 6HR MAX TEMP:  73;

CAMDEN         CLOUDY    59  55  88 SW6       29.76R
TEXARKANA      LGT RAIN  55  54  96 SW10      29.75F
6HR MIN TEMP:  55; 6HR MAX TEMP:  70; 6HR PCP:  0.05;

EL DORADO      CLOUDY    59  57  93 SW3       29.75F
6HR MIN TEMP:  58; 6HR MAX TEMP:  75; 6HR PCP:  0.25;

DE QUEEN       LGT RAIN  55  55 100 SW7       29.74R
6HR MIN TEMP:  54; 6HR MAX TEMP:  68; 6HR PCP:  0.03;

$$

ARZ056-057-069-301300-
SOUTHEAST ARKANSAS

CITY           SKY/WX    TMP DP  RH WIND       PRES   REMARKS
PINE BLUFF     CLOUDY    67  65  93 SW12      29.73R THUNDER
6HR MIN TEMP:  67; 6HR MAX TEMP:  76; 6HR PCP:  1.32;

STUTTGART      CLOUDY    72  61  68 S18       29.71R
6HR MIN TEMP:  70; 6HR MAX TEMP:  75; 6HR PCP:  1.11;

MONTICELLO     LGT RAIN  66  64  93 SW7       29.76S
6HR MIN TEMP:  66; 6HR MAX TEMP:  77; 6HR PCP:  2.41;


$$





USA.gov is the U.S. government's official web portal to all federal, state and local government web resources and services.